(220783) = 2007 DJ37 = 2004 TT167

Discovered at Kitt Peak on 2004-10-07 by Spacewatch.

Orbit

Orbit type: Main Belt

Note: WebGL enabled browser required.

epoch2023-09-13.0
epoch JD2460200.5
perihelion date2023-04-09.84241
perihelion JD2460044.34241
argument of perihelion (°)324.34146
ascending node (°)242.28977
inclination (°)1.04684
eccentricity0.0144485
perihelion distance (AU)2.9621519
Tisserand w.r.t. Jupiter3.3
ΔV w.r.t. Earth (km/sec)10.7
semimajor axis (AU)3.0055780
mean anomaly (°)29.53758
mean daily motion (°/day)0.18915240
aphelion distance (AU)3.049
period (years)5.21
P-vector [x]-0.89382387
P-vector [y]-0.40706312
P-vector [z]-0.18809175
Q-vector [x]0.44812642
Q-vector [y]-0.82599324
Q-vector [z]-0.34193256
absolute magnitude16.31
phase slope0.15
uncertainty0
referenceMPEC 2023-Q34
observations used338
oppositions17
arc length (days)10008
first opposition used1996
last opposition used2023
residual rms (arc-secs)0.80
perturbers coarse indicatorM-v
perturbers precise indicator003Ek
first observation date used1996-01-13.0
last observation date used2023-06-08.0
computer nameMPCLINUX
JD of orbit computation2456937.178681
perihelion JD uncertainty (days)1.1064E-03
argument of perihelion uncertainty (°)3.9706E-04
ascending node uncertainty (°)3.3786E-04
inclination uncertainty (°)3.4034E-06
eccentricity uncertainty 3.9369E-08
perihelion distance uncertainty (AU)1.1618E-07
Minimum Orbit Intersection Distances (in AU)
for orbit epoch: 2460200.5, reference: E2023-Q34
Mercury2.50712
Venus2.24091
Earth1.95448
Mars1.31295
Jupiter1.90797
Saturn6.02592
Uranus15.4747
Neptune26.7918

Observations

349 total observations over interval: 1996 01 13.21457 – 2023 06 08.317461
These data are available for download (format description).

Date (UT) J2000 RA J2000 Dec Magn Location Ref
1996 01 13.21457 08 48 54.59 +16 25 23.9   691 – Steward Observatory, Kitt Peak-Spacewatch MPS 208930
1996 01 13.23670 08 48 53.58 +16 25 27.0 20.9 V 691 – Steward Observatory, Kitt Peak-Spacewatch MPS 208930
1996 01 13.25834 08 48 52.55 +16 25 31.1   691 – Steward Observatory, Kitt Peak-Spacewatch MPS 208930
1997 05 05.26642 13 57 32.26 -12 46 02.3 20.7 V 691 – Steward Observatory, Kitt Peak-Spacewatch MPS 208930
1997 05 05.28869 13 57 31.24 -12 45 56.5 20.7 V 691 – Steward Observatory, Kitt Peak-Spacewatch MPS 208930
1997 05 05.31080 13 57 30.22 -12 45 50.4 21.0 V 691 – Steward Observatory, Kitt Peak-Spacewatch MPS 208930
2000 11 30.50423 07 48 10.66 +20 13 45.3 21.4 V 691 – Steward Observatory, Kitt Peak-Spacewatch MPS 208930
2000 11 30.52636 07 48 10.24 +20 13 45.4 21.8 V 691 – Steward Observatory, Kitt Peak-Spacewatch MPS 208930
2000 11 30.54833 07 48 09.89 +20 13 45.1 21.3 V 691 – Steward Observatory, Kitt Peak-Spacewatch MPS 208930
2002 04 08.21629 12 48 19.60 -06 26 54.2 20.5 V 691 – Steward Observatory, Kitt Peak-Spacewatch MPS 208930
2002 04 08.23813 12 48 18.58 -06 26 47.2 21.0 V 691 – Steward Observatory, Kitt Peak-Spacewatch MPS 208930
2002 04 08.26008 12 48 17.54 -06 26 40.6 21.0 V 691 – Steward Observatory, Kitt Peak-Spacewatch MPS 208930
2002 04 15.23298 12 43 07.28 -05 51 56.4 21.7 V 691 – Steward Observatory, Kitt Peak-Spacewatch MPS 208930
2002 04 15.25471 12 43 06.31 -05 51 49.9 21.3 V 691 – Steward Observatory, Kitt Peak-Spacewatch MPS 208930
2002 04 15.27600 12 43 05.35 -05 51 43.4 21.5 V 691 – Steward Observatory, Kitt Peak-Spacewatch MPS 208930
2004 10 07.18785 00 21 33.56 +03 42 00.6 20.6 V 691 – Steward Observatory, Kitt Peak-Spacewatch MPS 117876
2004 10 07.21462 00 21 32.34 +03 41 52.2 20.6 V 691 – Steward Observatory, Kitt Peak-Spacewatch MPS 117876
2004 10 07.24156 00 21 31.09 +03 41 44.5 20.6 V 691 – Steward Observatory, Kitt Peak-Spacewatch MPS 117876
2004 10 11.16913 00 18 40.87 +03 22 11.0 21.1 V 691 – Steward Observatory, Kitt Peak-Spacewatch MPS 117876
2004 10 11.20167 00 18 39.48 +03 22 01.5 20.8 V 691 – Steward Observatory, Kitt Peak-Spacewatch MPS 117876
2004 10 11.22898 00 18 38.31 +03 21 53.8 20.7 V 691 – Steward Observatory, Kitt Peak-Spacewatch MPS 117876
2004 10 15.14713 00 15 56.96 +03 03 06.3 20.6 V 691 – Steward Observatory, Kitt Peak-Spacewatch MPS 118591
2004 10 15.17429 00 15 55.85 +03 02 58.4 20.8 V 691 – Steward Observatory, Kitt Peak-Spacewatch MPS 118591
2004 10 15.20097 00 15 54.74 +03 02 51.2 20.7 V 691 – Steward Observatory, Kitt Peak-Spacewatch MPS 118591
2007 02 17.41951 12 01 17.82 -01 40 32.4   691 – Steward Observatory, Kitt Peak-Spacewatch MPS 200521
2007 02 17.43572 12 01 17.33 -01 40 30.0   691 – Steward Observatory, Kitt Peak-Spacewatch MPS 200521
2007 02 17.45141 12 01 16.86 -01 40 27.0   691 – Steward Observatory, Kitt Peak-Spacewatch MPS 200521
2007 02 21.44508 11 59 13.74 -01 27 59.6 20.9 V 691 – Steward Observatory, Kitt Peak-Spacewatch MPS 200521
2007 02 21.46424 11 59 13.06 -01 27 55.6 21.1 V 691 – Steward Observatory, Kitt Peak-Spacewatch MPS 200521
2007 02 21.48340 11 59 12.41 -01 27 51.6 20.9 V 691 – Steward Observatory, Kitt Peak-Spacewatch MPS 200521
2007 03 10.35024 11 47 58.99 -00 16 31.8 20.4 V G96 – Mt. Lemmon Survey MPS 209019
2007 03 10.35736 11 47 58.63 -00 16 30.0 20.4 V G96 – Mt. Lemmon Survey MPS 209019
2007 03 10.36443 11 47 58.30 -00 16 28.1 20.6 V G96 – Mt. Lemmon Survey MPS 209019
2007 03 10.37157 11 47 57.98 -00 16 25.8 20.4 V G96 – Mt. Lemmon Survey MPS 209019
2007 04 11.26200 11 25 40.33 +02 15 20.2 20.9 V G96 – Mt. Lemmon Survey MPS 209019
2007 04 11.26920 11 25 40.08 +02 15 21.9 20.7 V G96 – Mt. Lemmon Survey MPS 209019
2007 04 11.27655 11 25 39.86 +02 15 23.9 20.8 V G96 – Mt. Lemmon Survey MPS 209019
2007 04 11.28381 11 25 39.61 +02 15 25.3 20.6 V G96 – Mt. Lemmon Survey MPS 209019
2007 04 19.16234 11 22 08.36 +02 41 33.7 20.7 V G96 – Mt. Lemmon Survey MPS 209019
2007 04 19.17131 11 22 08.11 +02 41 36.0 20.8 V G96 – Mt. Lemmon Survey MPS 209019
2007 04 19.19139 11 22 07.68 +02 41 39.1 20.8 V G96 – Mt. Lemmon Survey MPS 209019
2007 04 19.20020 11 22 07.46 +02 41 41.0 21.0 V G96 – Mt. Lemmon Survey MPS 209019
2009 08 28.30401 23 32 00.05 -01 24 16.1 20.9 V 691 – Steward Observatory, Kitt Peak-Spacewatch MPS 292607
2009 08 28.31926 23 31 59.44 -01 24 20.5 20.7 V 691 – Steward Observatory, Kitt Peak-Spacewatch MPS 292607
2009 08 28.33450 23 31 58.75 -01 24 23.2 20.1 V 691 – Steward Observatory, Kitt Peak-Spacewatch MPS 292607
2009 09 18.37601 23 16 35.29 -03 03 50.8 20.1 V G96 – Mt. Lemmon Survey MPS 294989
2009 09 18.38082 23 16 35.11 -03 03 52.3 20.3 V G96 – Mt. Lemmon Survey MPS 294989
2009 09 18.38564 23 16 34.86 -03 03 53.9 20.3 V G96 – Mt. Lemmon Survey MPS 294989
2009 09 18.39052 23 16 34.64 -03 03 55.1 20.4 V G96 – Mt. Lemmon Survey MPS 294989
2009 09 20.23212 23 15 13.82 -03 12 53.2 20.4 V G96 – Mt. Lemmon Survey MPS 295811
2009 09 20.23847 23 15 13.53 -03 12 55.0 20.4 V G96 – Mt. Lemmon Survey MPS 295811
2009 09 20.24480 23 15 13.24 -03 12 57.2 20.4 V G96 – Mt. Lemmon Survey MPS 295811
2009 09 20.25106 23 15 12.96 -03 12 58.8 20.2 V G96 – Mt. Lemmon Survey MPS 295811
2009 09 20.28751 23 15 11.34 -03 13 09.1 20.4 V G96 – Mt. Lemmon Survey MPS 295811
2009 09 20.29640 23 15 10.94 -03 13 12.0 20.4 V G96 – Mt. Lemmon Survey MPS 295811
2009 09 20.30529 23 15 10.54 -03 13 14.4 20.4 V G96 – Mt. Lemmon Survey MPS 295811
2009 09 20.31419 23 15 10.11 -03 13 16.8 20.4 V G96 – Mt. Lemmon Survey MPS 295811
2009 10 15.20553 23 00 51.44 -04 52 22.4 21.2 V G96 – Mt. Lemmon Survey MPS 299248
2009 10 15.21184 23 00 51.26 -04 52 23.5 20.9 V G96 – Mt. Lemmon Survey MPS 299248
2009 10 15.21815 23 00 51.12 -04 52 24.4 20.7 V G96 – Mt. Lemmon Survey MPS 299248
2009 10 15.22456 23 00 50.94 -04 52 25.3 21.4 V G96 – Mt. Lemmon Survey MPS 299248
2010 11 13.30124 05 05 06.36 +22 40 20.9 20.8 V 691 – Steward Observatory, Kitt Peak-Spacewatch MPS 358639
2010 11 13.31894 05 05 05.57 +22 40 19.9 20.5 V 691 – Steward Observatory, Kitt Peak-Spacewatch MPS 358639
2010 11 13.33666 05 05 04.89 +22 40 18.2 20.9 V 691 – Steward Observatory, Kitt Peak-Spacewatch MPS 358639
2010 11 27.44363 04 53 48.98 +22 19 31.5 20.0 V G96 – Mt. Lemmon Survey MPS 362503
2010 11 27.45155 04 53 48.55 +22 19 30.4 20.0 V G96 – Mt. Lemmon Survey MPS 362503
2010 11 27.45958 04 53 48.08 +22 19 29.9 20.0 V G96 – Mt. Lemmon Survey MPS 362503
2010 11 27.46753 04 53 47.68 +22 19 28.9 19.1 V G96 – Mt. Lemmon Survey MPS 362503
2010 12 02.38448 04 49 23.08 +22 10 45.7 20.0 V G96 – Mt. Lemmon Survey MPS 362503
2010 12 02.39181 04 49 22.69 +22 10 45.0 20.0 V G96 – Mt. Lemmon Survey MPS 362503
2010 12 02.39921 04 49 22.26 +22 10 44.3 20.0 V G96 – Mt. Lemmon Survey MPS 362503
2010 12 02.40655 04 49 21.86 +22 10 43.5 19.9 V G96 – Mt. Lemmon Survey MPS 362503
2010 12 03.33324 04 48 31.39 +22 09 00.9 19.6 V G96 – Mt. Lemmon Survey MPS 362503
2010 12 03.34073 04 48 30.96 +22 08 59.9 19.9 V G96 – Mt. Lemmon Survey MPS 362503
2010 12 03.34829 04 48 30.56 +22 08 59.2 19.7 V G96 – Mt. Lemmon Survey MPS 362503
2010 12 03.35575 04 48 30.09 +22 08 58.3 19.8 V G96 – Mt. Lemmon Survey MPS 362503
2010 12 09.15155 04 43 14.02 +21 57 55.9 20.9 V 691 – Steward Observatory, Kitt Peak-Spacewatch MPS 362503
2010 12 09.16934 04 43 13.02 +21 57 53.9 20.6 V 691 – Steward Observatory, Kitt Peak-Spacewatch MPS 362503
2010 12 09.18714 04 43 12.04 +21 57 52.1 20.3 V 691 – Steward Observatory, Kitt Peak-Spacewatch MPS 362503
2011 12 28.48300 10 56 33.07 +05 24 05.8 21.8 V G96 – Mt. Lemmon Survey MPS 405774
2011 12 28.49153 10 56 33.18 +05 24 05.1 21.6 V G96 – Mt. Lemmon Survey MPS 405774
2011 12 28.50022 10 56 33.28 +05 24 03.1 21.8 V G96 – Mt. Lemmon Survey MPS 405774
2011 12 28.50893 10 56 33.32 +05 24 02.7 21.4 V G96 – Mt. Lemmon Survey MPS 405774
2012 01 19.49329 10 56 05.686 +05 16 50.77 21.4 w F51 – Pan-STARRS 1, Haleakala MPS 408626
2012 01 19.50739 10 56 05.450 +05 16 51.68 21.4 w F51 – Pan-STARRS 1, Haleakala MPS 408626
2012 01 19.52143 10 56 05.192 +05 16 52.73 21.5 w F51 – Pan-STARRS 1, Haleakala MPS 408626
2012 02 13.45095 10 43 15.130 +06 27 10.92 20.7 r F51 – Pan-STARRS 1, Haleakala MPS 412786
